Location: Bailleul
(50.3375°N, 2.8513°E)
Time: 09:48:44
(UTC+00:00)

BREEZE-M DEB (TANK) - Pass Details

Date: 16 June 2021
Orbit: 322 x 14771 km, 49.5° (Epoch: 27 July)

Event Time Altitude Azimuth Distance (km) Brightness Sun altitude
Rises 20:35:28 0° 210° (SSW) 2,057 5.6 -4.7°
Reaches altitude 10° 20:37:15 10° 190° (S) 1,313 4.4 -4.9°
Maximum altitude 20:39:15 21° 135° (SE) 1,063 3.7 -5.2°
Drops below altitude 10° 20:42:28 10° 85° (E) 2,207 5.5 -5.5°
Sets 20:46:50 0° 71° (ENE) 4,275 7.1 -6.0°
